COSMOS 1536

Last updated on Thu Oct 30 2025 00:02:14 GMT+0000 (Coordinated Universal Time)

1 14699U 84013A 25302.30104369 .00012491 00000+0 54847-3 0 9990 2 14699 82.5462 238.2024 0016510 31.4946 328.7274 15.21691271252624
UTC large
Height (km)
Speed (km/s)
/
Latitude / Longitude
Inclination (degrees)
Orbital Period (minutes)
Azimuth
Elevation
Range (km)
Doppler Factor

Next 0 passes for location: London (51.5072 / 0.1276)

Sorry there are no passes over London.